Theta_e
329 328 328 329 325 324 321 317 312 303 303 307 315 322 326 327 328 328 326 331 330 326 325 325 324 324 324 325 325 325 325 324 324 322 319 318 317 317
328 328 328 329 328 325 323 320 316 310 304 308 312 318 322 322 328 324 324 329 327 325 325 322 321 321 320 320 322 323 323 322 320 320 319 317 316 316
326 326 326 326 326 325 324 322 319 316 308 309 316 315 319 321 322 321 323 321 323 323 323 321 318 318 319 320 319 319 319 319 318 318 317 316 316 315
322 322 324 328 326 326 324 321 318 316 313 310 312 313 316 317 318 318 319 319 318 322 321 319 317 317 317 317 315 315 314 314 315 315 314 314 313 314
321 320 320 321 323 323 322 321 320 320 317 314 311 315 316 316 313 314 314 313 315 322 319 318 316 315 314 314 312 311 310 309 309 309 311 312 312 313
319 320 319 318 317 318 319 318 318 317 317 315 314 312 313 312 312 310 309 310 310 316 317 314 314 313 312 312 312 311 309 307 306 307 307 308 309 310
314 316 317 319 322 319 316 316 314 315 316 315 314 313 311 309 310 311 311 309 309 309 308 308 307 308 308 311 311 313 309 308 307 306 305 305 305 305
311 314 313 318 317 318 317 317 315 312 312 314 313 312 312 312 312 311 310 307 305 309 308 307 309 306 306 306 309 309 308 307 307 306 306 305 304 304
311 311 312 315 314 314 314 314 313 313 314 311 308 306 308 311 314 310 310 309 308 307 309 305 309 306 307 308 308 307 306 306 306 305 305 304 304 302
311 310 309 309 308 306 308 311 310 310 310 312 308 310 310 312 314 313 311 310 310 310 309 304 309 307 308 308 309 307 306 305 305 305 304 303 301 300
309 311 309 305 303 301 306 306 306 307 312 310 310 308 307 307 312 313 309 307 304 306 310 307 306 305 305 304 305 307 305 304 304 304 303 303 301 301
305 307 306 304 301 302 303 303 302 305 306 307 306 307 306 308 307 312 312 306 306 304 309 306 305 305 300 302 301 302 302 304 303 302 303 302 301 298
306 305 307 297 298 295 296 300 302 304 305 304 305 306 305 310 310 310 313 310 306 304 310 308 304 302 301 298 299 298 299 298 299 300 301 300 300 299
304 305 304 300 298 299 300 299 298 299 306 306 305 305 307 309 308 310 312 311 312 309 312 311 304 301 299 296 296 299 298 301 300 299 300 301 300 300
304 303 300 298 298 299 300 298 297 300 305 304 304 303 305 308 308 309 311 312 311 311 313 310 307 305 302 298 297 298 299 301 302 301 301 305 303 298
301 299 299 299 299 301 302 301 303 306 305 305 305 307 309 308 308 309 308 309 308 307 311 310 309 305 302 302 299 298 300 298 300 299 302 304 303 304
296 297 301 303 304 303 304 306 306 305 305 306 306 306 307 307 307 309 308 308 305 305 305 307 308 305 302 301 298 299 299 299 299 298 301 299 297 297
296 302 302 300 301 301 302 302 305 305 305 305 305 305 304 305 305 306 307 305 304 304 303 304 305 304 301 300 300 298 297 298 298 300 301 295 292 293
299 298 300 301 301 301 301 301 302 304 305 304 303 303 304 305 303 304 304 305 303 303 304 303 303 302 297 294 294 297 296 299 298 297 297 296 297 293
299 299 300 300 299 299 301 301 302 303 304 304 304 305 305 305 304 304 305 304 303 303 302 302 302 302 298 295 292 292 295 299 297 295 292 294 293 296
298 299 301 300 300 300 302 302 303 302 302 303 303 304 306 305 304 305 304 299 299 302 300 297 299 294 301 300 294 291 294 297 297 295 293 292 291 293
296 298 297 296 297 299 299 302 300 299 300 299 298 297 300 300 301 301 303 302 301 301 298 296 297 300 298 298 292 291 292 292 296 298 298 297 296 293
297 297 298 299 298 297 298 298 297 297 296 296 296 296 296 297 298 297 299 300 298 297 296 295 296 297 296 296 292 291 291 289 291 291 293 297 297 297
Wind_Speed
9 8 8 8 5 5 4 4 4 4 4 4 3 5 7 9 13 14 12 16 20 18 16 14 12 11 11 11 10 10 10 9 9 10 11 11 11 11
7 9 9 8 7 7 6 5 5 6 5 4 4 3 3 5 9 10 11 18 18 17 16 15 14 12 11 10 10 9 9 9 8 7 8 11 11 11
8 9 9 8 6 6 7 7 5 4 5 3 2 2 1 4 2 3 9 9 10 18 18 17 15 13 12 10 9 8 8 7 7 7 7 8 9 11
7 6 7 6 10 11 8 9 1 2 1 5 3 2 2 2 2 2 4 6 9 17 17 13 11 12 12 12 11 10 9 8 7 5 6 8 10 10
5 4 5 4 5 4 5 3 5 4 4 4 4 1 2 2 1 3 2 3 2 16 15 15 13 12 12 12 11 10 9 8 8 9 9 9 10 10
6 5 6 6 6 5 5 5 5 6 6 6 6 4 3 2 3 4 2 1 3 4 8 8 12 13 13 13 12 12 10 10 9 9 9 9 9 8
7 6 6 8 11 7 4 5 5 5 5 6 7 7 7 5 10 5 6 4 3 2 3 4 5 6 7 10 10 14 13 12 11 9 8 8 7 8
7 7 7 9 9 12 11 11 7 6 6 3 4 6 8 7 7 9 10 8 8 6 7 6 5 7 7 6 13 14 14 13 11 8 8 8 9 8
7 7 7 6 8 7 8 10 7 11 10 4 6 6 4 4 5 9 13 10 8 5 9 7 6 7 7 7 16 18 15 13 11 9 8 8 8 8
5 7 6 6 6 6 7 7 6 6 7 6 8 8 6 5 8 8 9 7 3 5 8 7 7 7 4 5 15 17 15 13 11 10 9 9 8 8
5 5 4 0 3 8 6 6 7 6 6 13 14 13 11 11 7 4 5 7 5 5 9 5 4 5 4 4 4 14 14 12 11 11 10 9 8 6
6 7 2 3 7 6 3 3 5 7 6 5 5 10 11 9 12 9 5 8 6 4 6 6 4 5 3 2 3 4 4 8 11 11 9 8 7 2
4 5 4 5 8 7 5 5 7 4 7 5 5 5 5 8 8 8 8 9 8 3 7 6 4 3 3 4 2 2 4 3 4 5 9 10 9 8
5 5 5 10 14 16 11 13 14 8 4 5 5 6 7 6 6 6 8 9 6 5 12 9 4 5 4 3 4 2 3 4 4 4 4 5 6 9
5 6 14 16 16 12 14 13 6 4 4 4 6 6 5 5 6 4 5 9 11 4 7 7 3 5 4 5 5 4 4 4 4 4 3 3 4 3
9 9 11 16 15 10 9 6 4 3 3 5 5 6 3 4 6 5 5 7 8 4 3 3 6 6 4 7 5 4 4 4 3 3 3 4 3 3
8 4 5 7 8 7 6 3 2 2 2 3 3 3 3 5 6 6 7 8 5 6 3 2 7 9 8 5 4 4 4 2 3 4 4 7 5 4
3 4 6 7 7 7 8 4 2 3 3 3 3 1 1 3 4 4 6 8 6 3 3 4 7 7 4 8 15 3 2 3 1 3 7 6 2 3
2 3 3 4 5 4 5 5 5 4 4 4 3 3 3 0 3 5 4 7 4 2 2 4 6 6 4 3 2 21 3 2 4 3 4 3 5 3
3 4 5 5 3 3 2 1 2 3 3 3 3 3 4 4 1 7 5 5 4 3 4 4 5 5 5 6 4 2 19 3 4 3 3 4 6 12
5 5 4 4 4 3 4 4 4 4 3 4 3 1 3 2 1 1 3 4 7 6 8 5 3 7 8 7 5 4 7 20 13 4 5 5 4 3
6 9 9 8 7 7 10 5 6 9 7 5 6 6 6 4 4 5 6 7 4 8 3 3 4 5 4 5 7 7 5 4 13 19 16 8 2 5
5 7 9 9 9 8 8 8 7 6 5 6 5 6 6 5 6 5 6 7 7 7 5 4 3 3 4 6 9 5 8 3 4 7 8 13 13 15
Wind_Direction
242 237 233 249 239 238 237 201 195 233 255 246 236 215 209 198 201 200 196 188 190 183 176 182 188 200 207 217 228 231 229 218 214 213 231 246 253 263
249 251 248 241 237 234 228 230 213 208 242 194 229 260 200 204 200 171 181 172 167 169 175 180 181 192 204 215 224 222 211 202 199 208 230 248 258 269
263 259 255 251 250 246 227 229 234 217 219 271 208 263 69 155 225 172 165 161 169 171 174 179 180 186 195 198 191 186 187 194 203 215 235 249 256 263
274 280 269 262 251 251 251 227 3 5 245 287 247 224 106 39 206 196 179 181 165 181 174 173 182 180 176 176 182 191 197 205 212 215 232 239 244 252
307 305 300 305 292 263 250 235 233 207 217 234 250 160 75 132 138 60 90 56 210 176 171 169 177 177 177 184 187 191 193 195 205 219 227 235 244 245
317 294 283 274 266 254 234 226 216 217 224 225 225 199 175 179 127 170 186 230 170 181 174 164 173 187 194 197 185 192 193 197 205 214 220 226 227 227
317 310 291 282 280 255 206 230 216 230 231 227 240 225 206 186 198 194 201 166 225 194 152 175 192 197 209 213 191 196 196 201 205 205 216 226 214 219
293 294 288 288 289 274 256 242 213 208 232 212 236 256 261 231 206 202 212 202 210 187 185 205 173 208 203 201 192 195 195 199 199 192 221 228 214 214
283 285 292 291 290 286 274 258 249 245 225 220 217 222 212 212 238 225 196 200 208 174 182 198 184 218 202 196 187 198 188 195 181 193 208 213 206 211
282 285 304 311 355 357 330 294 243 229 228 208 211 232 214 213 215 208 196 217 233 169 177 196 173 211 205 196 187 183 178 180 182 195 202 206 209 217
289 304 295 359 344 35 22 352 316 270 252 224 218 219 219 215 202 204 203 185 189 184 184 163 162 145 181 164 171 170 172 170 188 199 201 205 211 216
306 300 193 189 356 332 350 315 300 279 291 276 229 237 238 224 218 225 208 203 186 176 175 155 140 146 127 114 142 151 146 176 201 206 205 210 208 184
297 302 314 251 295 275 258 247 241 226 280 284 269 252 218 216 221 216 214 203 181 168 172 151 146 148 115 122 123 164 154 180 196 218 223 225 207 183
299 294 300 293 299 293 282 250 243 246 225 249 267 256 234 216 238 229 216 192 183 154 161 164 144 147 127 95 141 131 183 212 171 208 205 234 218 210
285 297 306 292 288 290 269 259 233 233 227 238 260 248 236 212 179 185 181 174 146 136 117 201 139 130 125 131 147 160 136 213 194 190 211 215 197 178
332 313 300 290 278 275 289 222 190 215 241 258 249 253 223 174 189 179 180 159 149 140 69 240 170 129 105 129 122 137 179 168 174 173 167 70 58 99
316 305 326 334 341 342 337 19 68 273 273 282 256 232 215 202 186 184 168 147 133 140 153 89 113 88 70 117 108 157 157 181 165 167 92 87 36 32
353 334 344 346 345 351 353 357 29 348 299 301 314 123 70 78 95 83 116 119 118 143 118 119 116 100 69 61 36 142 113 151 109 108 111 100 84 19
325 310 318 312 333 10 4 5 16 358 2 37 15 19 38 197 122 120 126 135 134 129 145 132 123 118 102 113 192 41 78 99 99 61 78 111 135 126
282 279 287 289 298 321 323 78 14 334 349 353 3 349 23 63 159 147 127 121 142 120 142 120 120 125 143 161 129 40 16 118 107 98 95 71 72 113
336 348 320 311 289 296 290 288 287 283 310 334 321 302 157 133 126 128 149 128 136 136 132 120 150 132 110 104 87 60 41 44 59 109 126 131 158 183
9 12 6 2 16 28 15 20 31 45 47 26 31 29 52 81 93 107 139 132 126 122 78 100 116 117 85 116 120 125 113 52 56 66 63 57 179 183
26 30 24 29 21 12 22 29 34 31 34 44 36 24 33 50 52 70 96 108 106 108 116 102 84 68 98 125 126 130 117 97 77 68 55 43 54 68